Starlink 35649

operational
NORAD ID: 66125 Int'l Des: 2025-237 Owner: SPXS Country: US Constellation: starlink
LEOCIRCULAR

Über Starlink 35649

Beschreibung wird geladen...

Live-Position

3D-Globus wird geladen...

Nächste Überflüge

Höhenverlauf

Altitude vs Time

uPlot chart will show altitude changes over time

Zweizeiliger Elementsatz

1 66125U 25237M 25349.24491451 .00039601 00000-0 99366-3 0 9997
2 66125 53.1609 75.2678 0001571 92.5285 267.5899 15.39656830 9636
Epoch: 15. Dez. 2025 • Age: 20 hours

Aktueller Status

Höhe 450.1 km
Geschwindigkeit 7.64 km/s
Subsatellitenpunkt -10.98°S, 153.65°E
Startdatum 22. Okt. 2025
Alter 0.1 years
Typ internet

Technische Details

Klassifizierung Payload
Masse 575.00 kg
Trockenmasse 530.00 kg
Gesamtmasse 575.00 kg
Länge 0.30 m
Durchmesser 4.10 m
Spannweite 29.00 m
Form Box + pan
Hersteller SPXS
Bus-Typ Starlink V2MO
Phasenstatus In Orbit
Besitzer/Staat SPXS/US

Große Konstellationen

Loading constellations...